| time (UTC) | temp F | wind direction | speed MPH | gust MPH | rain 1hr in | rain 24hr in | rain mn in | humidity % | barometer mb |
| 20260904102801 | 76 | 93 | 0.0 | 2.0 | 0.00 | 0.00 | 0.00 | 71 | 1014.4 |
| 20260904102301 | 76 | 100 | 0.0 | 0.0 | 0.00 | 0.00 | 0.00 | 71 | 1014.3 |
| 20260904101801 | 76 | 100 | 0.0 | 0.0 | 0.00 | 0.00 | 0.00 | 71 | 1014.3 |
| 20260904100802 | 76 | 132 | 0.0 | 0.0 | 0.00 | 0.00 | 0.00 | 71 | 1014.3 |
| 20260904100301 | 76 | 100 | 1.0 | 0.0 | 0.00 | 0.00 | 0.00 | 71 | 1014.3 |
| 20260904095802 | 76 | 129 | 0.0 | 3.0 | 0.00 | 0.00 | 0.00 | 71 | 1014.3 |
| 20260904095305 | 76 | 100 | 0.0 | 0.0 | 0.00 | 0.00 | 0.00 | 71 | 1014.3 |
| 20260904094801 | 76 | 161 | 0.0 | 0.0 | 0.00 | 0.00 | 0.00 | 70 | 1014.2 |
| 20260904094302 | 76 | 145 | 0.0 | 0.0 | 0.00 | 0.00 | 0.00 | 71 | 1014.2 |
| 20260904093801 | 76 | 86 | 0.0 | 0.0 | 0.00 | 0.00 | 0.00 | 71 | 1014.2 |
| 20260904093301 | 76 | 122 | 0.0 | 0.0 | 0.00 | 0.00 | 0.00 | 70 | 1014.2 |
| 20260904092801 | 76 | 114 | 0.0 | 0.0 | 0.00 | 0.00 | 0.00 | 70 | 1014.0 |
| 20260904092301 | 76 | 122 | 0.0 | 0.0 | 0.00 | 0.00 | 0.00 | 70 | 1013.9 |
| 20260904091802 | 76 | 100 | 0.0 | 0.0 | 0.00 | 0.00 | 0.00 | 70 | 1013.9 |
| 20260904091302 | 77 | 168 | 0.0 | 0.0 | 0.00 | 0.00 | 0.00 | 70 | 1013.9 |
| 20260904090802 | 77 | 150 | 0.0 | 0.0 | 0.00 | 0.00 | 0.00 | 70 | 1013.8 |
| 20260904090302 | 77 | 122 | 0.0 | 0.0 | 0.00 | 0.00 | 0.00 | 69 | 1013.7 |
| 20260904085301 | 77 | 100 | 0.0 | 0.0 | 0.00 | 0.00 | 0.00 | 69 | 1013.7 |
| 20260904084801 | 77 | 107 | 0.0 | 2.0 | 0.00 | 0.00 | 0.00 | 69 | 1013.8 |
| 20260904084301 | 77 | 122 | 1.0 | 2.0 | 0.00 | 0.00 | 0.00 | 69 | 1013.8 |
| 20260904083801 | 77 | 245 | 1.0 | 3.0 | 0.00 | 0.00 | 0.00 | 69 | 1013.8 |
| 20260904083301 | 78 | 122 | 1.0 | 3.0 | 0.00 | 0.00 | 0.00 | 68 | 1013.8 |
| 20260904082802 | 78 | 132 | 0.0 | 3.0 | 0.00 | 0.00 | 0.00 | 68 | 1013.9 |
| 20260904082305 | 78 | 100 | 0.0 | 0.0 | 0.00 | 0.00 | 0.00 | 68 | 1014.0 |
| 20260904081302 | 78 | 168 | 0.0 | 3.0 | 0.00 | 0.00 | 0.00 | 68 | 1014.0 |
| 20260904080801 | 78 | 130 | 0.0 | 2.0 | 0.00 | 0.00 | 0.00 | 67 | 1013.8 |
| 20260904080301 | 78 | 78 | 1.0 | 0.0 | 0.00 | 0.00 | 0.00 | 67 | 1013.7 |
| 20260904075802 | 78 | 123 | 1.0 | 2.0 | 0.00 | 0.00 | 0.00 | 67 | 1013.7 |
| 20260904075301 | 78 | 100 | 1.0 | 3.0 | 0.00 | 0.00 | 0.00 | 67 | 1013.7 |
| 20260904074801 | 78 | 121 | 1.0 | 3.0 | 0.00 | 0.00 | 0.00 | 66 | 1013.8 |
| 20260904073802 | 79 | 184 | 1.0 | 2.0 | 0.00 | 0.00 | 0.00 | 65 | 1013.9 |
| 20260904073302 | 79 | 145 | 1.0 | 2.0 | 0.00 | 0.00 | 0.00 | 65 | 1013.9 |
| 20260904072802 | 79 | 131 | 0.0 | 2.0 | 0.00 | 0.00 | 0.00 | 65 | 1013.7 |
| 20260904072301 | 79 | 122 | 0.0 | 2.0 | 0.00 | 0.00 | 0.00 | 65 | 1013.6 |
| 20260904071801 | 79 | 122 | 0.0 | 3.0 | 0.00 | 0.00 | 0.00 | 65 | 1013.6 |
| 20260904071301 | 79 | 100 | 0.0 | 3.0 | 0.00 | 0.00 | 0.00 | 65 | 1013.6 |
| 20260904070801 | 79 | 100 | 0.0 | 0.0 | 0.00 | 0.00 | 0.00 | 65 | 1013.7 |
| 20260904070302 | 79 | 325 | 1.0 | 0.0 | 0.00 | 0.00 | 0.00 | 64 | 1013.8 |
| 20260904065801 | 79 | 142 | 1.0 | 2.0 | 0.00 | 0.00 | 0.00 | 64 | 1013.8 |
| 20260904065301 | 79 | 100 | 1.0 | 2.0 | 0.00 | 0.00 | 0.00 | 64 | 1013.8 |
| 20260904064801 | 80 | 14 | 1.0 | 5.0 | 0.00 | 0.00 | 0.00 | 64 | 1013.8 |
| 20260904064301 | 80 | 100 | 0.0 | 3.0 | 0.00 | 0.00 | 0.00 | 64 | 1013.8 |
| 20260904063801 | 80 | 128 | 1.0 | 3.0 | 0.00 | 0.00 | 0.00 | 64 | 1013.8 |
| 20260904063302 | 80 | 145 | 1.0 | 3.0 | 0.00 | 0.00 | 0.00 | 64 | 1013.8 |
| 20260904062801 | 80 | 114 | 0.0 | 2.0 | 0.00 | 0.00 | 0.00 | 64 | 1013.7 |
| 20260904061301 | 80 | 145 | 1.0 | 2.0 | 0.00 | 0.00 | 0.00 | 63 | 1013.7 |
| 20260904060802 | 80 | 78 | 1.0 | 5.0 | 0.00 | 0.00 | 0.00 | 63 | 1013.8 |
| 20260904060301 | 80 | 258 | 0.0 | 3.0 | 0.00 | 0.00 | 0.00 | 63 | 1013.8 |
| 20260904055801 | 80 | 130 | 0.0 | 3.0 | 0.00 | 0.00 | 0.00 | 63 | 1013.8 |
| 20260904055301 | 80 | 78 | 1.0 | 0.0 | 0.00 | 0.00 | 0.00 | 62 | 1013.8 |
| 20260904054801 | 80 | 317 | 1.0 | 2.0 | 0.00 | 0.00 | 0.00 | 62 | 1013.9 |
| 20260904054302 | 80 | 145 | 0.0 | 2.0 | 0.00 | 0.00 | 0.00 | 62 | 1014.0 |
| 20260904053802 | 81 | 179 | 1.0 | 0.0 | 0.00 | 0.00 | 0.00 | 61 | 1014.0 |
| 20260904053302 | 81 | 78 | 2.0 | 3.0 | 0.00 | 0.00 | 0.00 | 61 | 1014.0 |
| 20260904052301 | 81 | 168 | 2.0 | 3.0 | 0.00 | 0.00 | 0.00 | 60 | 1014.0 |
| 20260904051802 | 81 | 135 | 1.0 | 3.0 | 0.00 | 0.00 | 0.00 | 60 | 1014.0 |
| 20260904051302 | 81 | 100 | 1.0 | 0.0 | 0.00 | 0.00 | 0.00 | 60 | 1014.0 |
| 20260904050817 | 82 | 122 | 1.0 | 5.0 | 0.00 | 0.00 | 0.00 | 60 | 1013.8 |
| 20260904050302 | 82 | 100 | 1.0 | 5.0 | 0.00 | 0.00 | 0.00 | 60 | 1013.7 |
| 20260904045801 | 82 | 115 | 1.0 | 3.0 | 0.00 | 0.00 | 0.00 | 60 | 1013.7 |
| 20260904045306 | 82 | 100 | 2.0 | 2.0 | 0.00 | 0.00 | 0.00 | 60 | 1013.7 |
| 20260904044802 | 82 | 100 | 2.0 | 3.0 | 0.00 | 0.00 | 0.00 | 59 | 1013.8 |
| 20260904044301 | 82 | 122 | 1.0 | 3.0 | 0.00 | 0.00 | 0.00 | 59 | 1013.9 |
| 20260904043801 | 82 | 106 | 1.0 | 3.0 | 0.00 | 0.00 | 0.00 | 59 | 1013.9 |
| 20260904043302 | 82 | 122 | 1.0 | 3.0 | 0.00 | 0.00 | 0.00 | 58 | 1013.9 |
| 20260904042802 | 82 | 110 | 1.0 | 3.0 | 0.00 | 0.00 | 0.00 | 58 | 1013.8 |
| 20260904042305 | 83 | 122 | 0.0 | 2.0 | 0.00 | 0.00 | 0.00 | 58 | 1013.7 |
| 20260904041301 | 83 | 100 | 0.0 | 0.0 | 0.00 | 0.00 | 0.00 | 58 | 1013.7 |
| 20260904040801 | 83 | 100 | 0.0 | 2.0 | 0.00 | 0.00 | 0.00 | 58 | 1013.9 |
| 20260904040301 | 83 | 100 | 0.0 | 0.0 | 0.00 | 0.00 | 0.00 | 57 | 1014.0 |
| 20260904035801 | 83 | 87 | 0.0 | 3.0 | 0.00 | 0.00 | 0.00 | 57 | 1014.0 |
| 20260904035301 | 83 | 100 | 0.0 | 0.0 | 0.00 | 0.00 | 0.00 | 57 | 1014.0 |
| 20260904034802 | 83 | 160 | 0.0 | 2.0 | 0.00 | 0.00 | 0.00 | 57 | 1013.9 |
| 20260904034302 | 83 | 145 | 0.0 | 2.0 | 0.00 | 0.00 | 0.00 | 57 | 1013.8 |
| 20260904033802 | 84 | 100 | 0.0 | 3.0 | 0.00 | 0.00 | 0.00 | 57 | 1013.8 |
| 20260904033302 | 84 | 122 | 0.0 | 0.0 | 0.00 | 0.00 | 0.00 | 56 | 1013.8 |
| 20260904032301 | 84 | 145 | 0.0 | 2.0 | 0.00 | 0.00 | 0.00 | 57 | 1013.6 |
| 20260904031801 | 84 | 280 | 0.0 | 2.0 | 0.00 | 0.00 | 0.00 | 56 | 1013.6 |
| 20260904031301 | 84 | 145 | 0.0 | 2.0 | 0.00 | 0.00 | 0.00 | 56 | 1013.6 |
| 20260904030801 | 84 | 190 | 0.0 | 2.0 | 0.00 | 0.00 | 0.00 | 56 | 1013.7 |
| 20260904030302 | 84 | 235 | 0.0 | 2.0 | 0.00 | 0.00 | 0.00 | 56 | 1013.8 |
| 20260904025802 | 84 | 129 | 0.0 | 0.0 | 0.00 | 0.00 | 0.00 | 56 | 1013.8 |
| 20260904025305 | 84 | 190 | 0.0 | 0.0 | 0.00 | 0.00 | 0.00 | 56 | 1013.8 |
| 20260904024802 | 84 | 220 | 0.0 | 0.0 | 0.00 | 0.00 | 0.00 | 56 | 1013.5 |
| 20260904023801 | 85 | 66 | 0.0 | 3.0 | 0.00 | 0.00 | 0.00 | 55 | 1013.4 |
| 20260904023301 | 85 | 168 | 0.0 | 3.0 | 0.00 | 0.00 | 0.00 | 55 | 1013.4 |
| 20260904022801 | 85 | 84 | 0.0 | 3.0 | 0.00 | 0.00 | 0.00 | 55 | 1013.5 |
| 20260904022305 | 85 | 212 | 0.0 | 0.0 | 0.00 | 0.00 | 0.00 | 55 | 1013.5 |
| 20260904021802 | 85 | 162 | 1.0 | 2.0 | 0.00 | 0.00 | 0.00 | 55 | 1013.5 |
| 20260904021302 | 85 | 145 | 1.0 | 5.0 | 0.00 | 0.00 | 0.00 | 54 | 1013.5 |
| 20260904020802 | 85 | 325 | 0.0 | 5.0 | 0.00 | 0.00 | 0.00 | 54 | 1013.5 |
| 20260904015802 | 86 | 123 | 1.0 | 5.0 | 0.00 | 0.00 | 0.00 | 52 | 1013.5 |
| 20260904015301 | 86 | 145 | 0.0 | 5.0 | 0.00 | 0.00 | 0.00 | 51 | 1013.5 |
| 20260904014802 | 86 | 324 | 0.0 | 0.0 | 0.00 | 0.00 | 0.00 | 50 | 1013.2 |
| 20260904014302 | 87 | 212 | 1.0 | 2.0 | 0.00 | 0.00 | 0.00 | 50 | 1013.1 |
| 20260904013801 | 87 | 112 | 1.0 | 2.0 | 0.00 | 0.00 | 0.00 | 49 | 1013.1 |
| 20260904013302 | 87 | 100 | 0.0 | 2.0 | 0.00 | 0.00 | 0.00 | 49 | 1013.1 |
| 20260904012802 | 87 | 190 | 0.0 | 3.0 | 0.00 | 0.00 | 0.00 | 49 | 1013.0 |
| 20260904012305 | 87 | 190 | 0.0 | 2.0 | 0.00 | 0.00 | 0.00 | 49 | 1012.9 |
| 20260904011302 | 88 | 145 | 0.0 | 2.0 | 0.00 | 0.00 | 0.00 | 48 | 1012.9 |
| 20260904010801 | 88 | 136 | 0.0 | 2.0 | 0.00 | 0.00 | 0.00 | 48 | 1012.7 |
| 20260904010301 | 88 | 78 | 0.0 | 2.0 | 0.00 | 0.00 | 0.00 | 48 | 1012.6 |
| 20260904005802 | 88 | 180 | 0.0 | 0.0 | 0.00 | 0.00 | 0.00 | 47 | 1012.6 |
| 20260904005302 | 88 | 168 | 0.0 | 0.0 | 0.00 | 0.00 | 0.00 | 47 | 1012.6 |
| 20260904003801 | 89 | 156 | 1.0 | 2.0 | 0.00 | 0.00 | 0.00 | 46 | 1012.7 |
| 20260904003301 | 89 | 78 | 1.0 | 2.0 | 0.00 | 0.00 | 0.00 | 45 | 1012.7 |
| 20260904002801 | 90 | 116 | 1.0 | 6.0 | 0.00 | 0.00 | 0.00 | 44 | 1012.5 |
| 20260904001802 | 90 | 180 | 1.0 | 5.0 | 0.00 | 0.00 | 0.00 | 44 | 1012.4 |
| 20260904001302 | 91 | 100 | 0.0 | 2.0 | 0.00 | 0.00 | 0.00 | 43 | 1012.4 |
| 20260904000802 | 91 | 180 | 0.0 | 2.0 | 0.00 | 0.00 | 0.00 | 43 | 1012.4 |
| 20260904000303 | 91 | 145 | 1.0 | 3.0 | 0.00 | 0.00 | 0.00 | 41 | 1012.4 |
| 20260903235801 | 92 | 158 | 1.0 | 3.0 | 0.00 | 0.00 | 0.00 | 41 | 1012.4 |
| 20260903235305 | 92 | 145 | 1.0 | 0.0 | 0.00 | 0.00 | 0.00 | 40 | 1012.4 |
| 20260903234801 | 92 | 85 | 1.0 | 2.0 | 0.00 | 0.00 | 0.00 | 40 | 1012.5 |
| 20260903233802 | 93 | 307 | 1.0 | 0.0 | 0.00 | 0.00 | 0.00 | 39 | 1012.6 |
| 20260903232802 | 94 | 96 | 1.0 | 3.0 | 0.00 | 0.00 | 0.00 | 36 | 1012.7 |
| 20260903232301 | 94 | 100 | 1.0 | 3.0 | 0.00 | 0.00 | 0.00 | 36 | 1012.8 |
| 20260903231801 | 95 | 212 | 1.0 | 5.0 | 0.00 | 0.00 | 0.00 | 35 | 1012.8 |
| 20260903231302 | 95 | 145 | 1.0 | 0.0 | 0.00 | 0.00 | 0.00 | 33 | 1012.8 |
| 20260903230802 | 98 | 265 | 1.0 | 7.0 | 0.00 | 0.00 | 0.00 | 31 | 1012.7 |
| 20260903230301 | 100 | 348 | 2.0 | 3.0 | 0.00 | 0.00 | 0.00 | 31 | 1012.6 |
| 20260903225802 | 100 | 324 | 2.0 | 5.0 | 0.00 | 0.00 | 0.00 | 31 | 1012.6 |
| 20260903225301 | 100 | 145 | 3.0 | 7.0 | 0.00 | 0.00 | 0.00 | 31 | 1012.6 |
| 20260903224801 | 99 | 70 | 2.0 | 12.0 | 0.00 | 0.00 | 0.00 | 30 | 1012.5 |
| 20260903224302 | 101 | 280 | 1.0 | 3.0 | 0.00 | 0.00 | 0.00 | 29 | 1012.4 |
| 20260903223802 | 100 | 145 | 1.0 | 5.0 | 0.00 | 0.00 | 0.00 | 31 | 1012.4 |
| 20260903223302 | 101 | 145 | 1.0 | 5.0 | 0.00 | 0.00 | 0.00 | 31 | 1012.4 |
| 20260903222801 | 101 | 145 | 2.0 | 5.0 | 0.00 | 0.00 | 0.00 | 29 | 1012.5 |
| 20260903222305 | 101 | 212 | 1.0 | 5.0 | 0.00 | 0.00 | 0.00 | 30 | 1012.6 |
| 20260903221801 | 103 | 141 | 1.0 | 5.0 | 0.00 | 0.00 | 0.00 | 28 | 1012.6 |
| 20260903221302 | 102 | 212 | 2.0 | 5.0 | 0.00 | 0.00 | 0.00 | 28 | 1012.6 |
| 20260903220802 | 102 | 114 | 2.0 | 8.0 | 0.00 | 0.00 | 0.00 | 28 | 1012.5 |
| 20260903215802 | 103 | 130 | 2.0 | 0.0 | 0.00 | 0.00 | 0.00 | 28 | 1012.5 |
| 20260903213802 | 103 | 126 | 2.0 | 10.0 | 0.00 | 0.00 | 0.00 | 27 | 1012.9 |
| 20260903213301 | 102 | 78 | 1.0 | 10.0 | 0.00 | 0.00 | 0.00 | 27 | 1012.9 |
| 20260903212801 | 102 | 145 | 1.0 | 3.0 | 0.00 | 0.00 | 0.00 | 29 | 1013.0 |
| 20260903211301 | 103 | 168 | 1.0 | 0.0 | 0.00 | 0.00 | 0.00 | 29 | 1013.1 |
| 20260903205802 | 102 | 134 | 2.0 | 5.0 | 0.00 | 0.00 | 0.00 | 30 | 1012.9 |
| 20260903205301 | 101 | 100 | 2.0 | 2.0 | 0.00 | 0.00 | 0.00 | 31 | 1012.9 |
| 20260903204802 | 100 | 241 | 2.0 | 7.0 | 0.00 | 0.00 | 0.00 | 31 | 1013.0 |
| 20260903204301 | 103 | 145 | 2.0 | 7.0 | 0.00 | 0.00 | 0.00 | 29 | 1013.0 |
| 20260903203802 | 103 | 101 | 2.0 | 8.0 | 0.00 | 0.00 | 0.00 | 31 | 1013.0 |
| 20260903203302 | 102 | 145 | 2.0 | 8.0 | 0.00 | 0.00 | 0.00 | 31 | 1013.0 |
| 20260903202802 | 101 | 131 | 1.0 | 5.0 | 0.00 | 0.00 | 0.00 | 32 | 1013.1 |
| 20260903202301 | 101 | 302 | 1.0 | 5.0 | 0.00 | 0.00 | 0.00 | 31 | 1013.2 |
| 20260903201802 | 102 | 125 | 0.0 | 0.0 | 0.00 | 0.00 | 0.00 | 34 | 1013.2 |
| 20260903201301 | 100 | 78 | 3.0 | 0.0 | 0.00 | 0.00 | 0.00 | 34 | 1013.2 |
| 20260903200802 | 98 | 287 | 5.0 | 13.0 | 0.00 | 0.00 | 0.00 | 34 | 1013.4 |
| 20260903200301 | 98 | 122 | 3.0 | 13.0 | 0.00 | 0.00 | 0.00 | 33 | 1013.5 |
| 20260903195802 | 99 | 108 | 3.0 | 6.0 | 0.00 | 0.00 | 0.00 | 33 | 1013.5 |
| 20260903195306 | 99 | 190 | 5.0 | 5.0 | 0.00 | 0.00 | 0.00 | 34 | 1013.5 |
| 20260903194801 | 99 | 128 | 5.0 | 7.0 | 0.00 | 0.00 | 0.00 | 34 | 1014.1 |
| 20260903193801 | 101 | 303 | 1.0 | 8.0 | 0.00 | 0.00 | 0.00 | 34 | 1014.5 |
| 20260903193302 | 100 | 145 | 1.0 | 5.0 | 0.00 | 0.00 | 0.00 | 35 | 1014.5 |
| 20260903192802 | 98 | 149 | 1.0 | 2.0 | 0.00 | 0.00 | 0.00 | 37 | 1014.2 |
| 20260903192301 | 99 | 212 | 2.0 | 2.0 | 0.00 | 0.00 | 0.00 | 36 | 1014.1 |
| 20260903191802 | 98 | 75 | 2.0 | 5.0 | 0.00 | 0.00 | 0.00 | 36 | 1014.1 |
| 20260903191302 | 97 | 168 | 2.0 | 5.0 | 0.00 | 0.00 | 0.00 | 37 | 1014.1 |
| 20260903190802 | 97 | 167 | 3.0 | 6.0 | 0.00 | 0.00 | 0.00 | 38 | 1014.3 |
| 20260903190301 | 95 | 122 | 5.0 | 6.0 | 0.00 | 0.00 | 0.00 | 37 | 1014.4 |
| 20260903185802 | 95 | 195 | 5.0 | 6.0 | 0.00 | 0.00 | 0.00 | 36 | 1014.4 |
| 20260903185301 | 96 | 145 | 4.0 | 14.0 | 0.00 | 0.00 | 0.00 | 36 | 1014.4 |
| 20260903184801 | 96 | 36 | 3.0 | 14.0 | 0.00 | 0.00 | 0.00 | 39 | 1014.4 |
| 20260903184302 | 96 | 325 | 5.0 | 6.0 | 0.00 | 0.00 | 0.00 | 40 | 1014.4 |
| 20260903183802 | 95 | 104 | 5.0 | 14.0 | 0.00 | 0.00 | 0.00 | 40 | 1014.4 |
| 20260903182803 | 94 | 208 | 5.0 | 9.0 | 0.00 | 0.00 | 0.00 | 43 | 1014.7 |
| 20260903182301 | 91 | 122 | 5.0 | 9.0 | 0.00 | 0.00 | 0.00 | 42 | 1014.8 |
| 20260903181802 | 93 | 125 | 5.0 | 5.0 | 0.00 | 0.00 | 0.00 | 43 | 1014.8 |
| 20260903181302 | 92 | 235 | 4.0 | 6.0 | 0.00 | 0.00 | 0.00 | 44 | 1014.8 |
| 20260903180302 | 91 | 32 | 4.0 | 0.0 | 0.00 | 0.00 | 0.00 | 46 | 1014.9 |
| 20260903175802 | 91 | 325 | 5.0 | 14.0 | 0.00 | 0.00 | 0.00 | 46 | 1014.9 |
| 20260903175305 | 91 | 10 | 5.0 | 14.0 | 0.00 | 0.00 | 0.00 | 46 | 1014.9 |
| 20260903174801 | 90 | 175 | 6.0 | 14.0 | 0.00 | 0.00 | 0.00 | 46 | 1015.2 |
| 20260903173802 | 90 | 149 | 5.0 | 10.0 | 0.00 | 0.00 | 0.00 | 47 | 1015.3 |
| 20260903172801 | 90 | 322 | 6.0 | 13.0 | 0.00 | 0.00 | 0.00 | 46 | 1015.4 |
| 20260903171802 | 90 | 49 | 6.0 | 9.0 | 0.00 | 0.00 | 0.00 | 47 | 1015.4 |
| 20260903171302 | 89 | 302 | 5.0 | 7.0 | 0.00 | 0.00 | 0.00 | 47 | 1015.4 |
| 20260903170802 | 90 | 108 | 5.0 | 8.0 | 0.00 | 0.00 | 0.00 | 47 | 1015.1 |
| 20260903170302 | 89 | 100 | 6.0 | 8.0 | 0.00 | 0.00 | 0.00 | 48 | 1014.9 |
| 20260903165305 | 89 | 100 | 6.0 | 8.0 | 0.00 | 0.00 | 0.00 | 49 | 1014.9 |
| 20260903164802 | 89 | 69 | 7.0 | 14.0 | 0.00 | 0.00 | 0.00 | 49 | 1015.4 |
| 20260903164301 | 89 | 78 | 5.0 | 10.0 | 0.00 | 0.00 | 0.00 | 49 | 1015.7 |
| 20260903163802 | 89 | 117 | 5.0 | 10.0 | 0.00 | 0.00 | 0.00 | 50 | 1015.7 |
| 20260903163302 | 88 | 168 | 5.0 | 14.0 | 0.00 | 0.00 | 0.00 | 50 | 1015.7 |
| 20260903162801 | 88 | 139 | 6.0 | 9.0 | 0.00 | 0.00 | 0.00 | 51 | 1015.6 |
| 20260903162306 | 88 | 145 | 6.0 | 10.0 | 0.00 | 0.00 | 0.00 | 51 | 1015.5 |
| 20260903161802 | 88 | 45 | 5.0 | 12.0 | 0.00 | 0.00 | 0.00 | 51 | 1015.5 |
| 20260903161302 | 87 | 302 | 5.0 | 10.0 | 0.00 | 0.00 | 0.00 | 51 | 1015.5 |
| 20260903160802 | 87 | 73 | 6.0 | 13.0 | 0.00 | 0.00 | 0.00 | 52 | 1015.6 |
| 20260903160301 | 87 | 122 | 6.0 | 20.0 | 0.00 | 0.00 | 0.00 | 51 | 1015.7 |
| 20260903155802 | 86 | 114 | 7.0 | 12.0 | 0.00 | 0.00 | 0.00 | 53 | 1015.7 |
| 20260903154802 | 86 | 100 | 6.0 | 13.0 | 0.00 | 0.00 | 0.00 | 53 | 1015.7 |
| 20260903154302 | 86 | 100 | 5.0 | 13.0 | 0.00 | 0.00 | 0.00 | 54 | 1015.7 |
| 20260903153802 | 86 | 100 | 5.0 | 12.0 | 0.00 | 0.00 | 0.00 | 57 | 1015.7 |
| 20260903153302 | 86 | 100 | 5.0 | 7.0 | 0.00 | 0.00 | 0.00 | 57 | 1015.7 |
| 20260903152802 | 85 | 100 | 3.0 | 8.0 | 0.00 | 0.00 | 0.00 | 58 | 1015.7 |
| 20260903152301 | 85 | 145 | 3.0 | 13.0 | 0.00 | 0.00 | 0.00 | 59 | 1015.7 |
| 20260903151802 | 85 | 55 | 3.0 | 13.0 | 0.00 | 0.00 | 0.00 | 59 | 1015.7 |
| 20260903151302 | 84 | 302 | 5.0 | 10.0 | 0.00 | 0.00 | 0.00 | 59 | 1015.7 |
| 20260903150801 | 84 | 46 | 5.0 | 10.0 | 0.00 | 0.00 | 0.00 | 60 | 1015.7 |
| 20260903150301 | 83 | 100 | 5.0 | 8.0 | 0.00 | 0.00 | 0.00 | 60 | 1015.7 |
| 20260903145802 | 83 | 125 | 3.0 | 12.0 | 0.00 | 0.00 | 0.00 | 60 | 1015.7 |
| 20260903144802 | 83 | 220 | 3.0 | 6.0 | 0.00 | 0.00 | 0.00 | 60 | 1015.7 |
| 20260903144302 | 82 | 145 | 3.0 | 6.0 | 0.00 | 0.00 | 0.00 | 61 | 1015.7 |
| 20260903143802 | 82 | 172 | 2.0 | 6.0 | 0.00 | 0.00 | 0.00 | 61 | 1015.7 |
| 20260903143302 | 82 | 145 | 2.0 | 5.0 | 0.00 | 0.00 | 0.00 | 62 | 1015.7 |
| 20260903142305 | 82 | 145 | 1.0 | 5.0 | 0.00 | 0.00 | 0.00 | 63 | 1015.6 |
| 20260903141802 | 81 | 32 | 1.0 | 3.0 | 0.00 | 0.00 | 0.00 | 65 | 1015.6 |
| 20260903141302 | 81 | 235 | 1.0 | 2.0 | 0.00 | 0.00 | 0.00 | 66 | 1015.6 |
| 20260903140302 | 80 | 122 | 1.0 | 3.0 | 0.00 | 0.00 | 0.00 | 67 | 1015.6 |
| 20260903135802 | 80 | 168 | 2.0 | 3.0 | 0.00 | 0.00 | 0.00 | 67 | 1015.6 |
| 20260903135302 | 80 | 235 | 2.0 | 3.0 | 0.00 | 0.00 | 0.00 | 67 | 1015.6 |
| 20260903134802 | 79 | 130 | 2.0 | 5.0 | 0.00 | 0.00 | 0.00 | 68 | 1015.6 |
| 20260903134302 | 79 | 100 | 2.0 | 3.0 | 0.00 | 0.00 | 0.00 | 69 | 1015.6 |
| 20260903133801 | 79 | 143 | 1.0 | 3.0 | 0.00 | 0.00 | 0.00 | 70 | 1015.6 |
| 20260903133302 | 78 | 145 | 1.0 | 3.0 | 0.00 | 0.00 | 0.00 | 70 | 1015.6 |
| 20260903132801 | 78 | 125 | 0.0 | 0.0 | 0.00 | 0.00 | 0.00 | 70 | 1015.7 |
| 20260903132306 | 78 | 212 | 1.0 | 2.0 | 0.00 | 0.00 | 0.00 | 71 | 1015.7 |
| 20260903131802 | 77 | 123 | 1.0 | 2.0 | 0.00 | 0.00 | 0.00 | 71 | 1015.7 |
| 20260903131302 | 77 | 145 | 1.0 | 3.0 | 0.00 | 0.00 | 0.00 | 71 | 1015.7 |
| 20260903130802 | 77 | 325 | 1.0 | 0.0 | 0.00 | 0.00 | 0.00 | 71 | 1015.6 |
| 20260903130302 | 76 | 100 | 0.0 | 2.0 | 0.00 | 0.00 | 0.00 | 72 | 1015.6 |
| 20260903125305 | 76 | 78 | 1.0 | 0.0 | 0.00 | 0.00 | 0.00 | 73 | 1015.6 |
| 20260903124802 | 76 | 90 | 1.0 | 3.0 | 0.00 | 0.00 | 0.00 | 72 | 1015.5 |
| 20260903124302 | 76 | 145 | 1.0 | 3.0 | 0.00 | 0.00 | 0.00 | 72 | 1015.4 |
| 20260903123302 | 75 | 168 | 0.0 | 0.0 | 0.00 | 0.00 | 0.00 | 73 | 1015.4 |
| 20260903122802 | 75 | 25 | 0.0 | 0.0 | 0.00 | 0.00 | 0.00 | 74 | 1015.6 |
| 20260903122305 | 75 | 145 | 0.0 | 0.0 | 0.00 | 0.00 | 0.00 | 74 | 1015.6 |
| 20260903121802 | 75 | 78 | 0.0 | 0.0 | 0.00 | 0.00 | 0.00 | 74 | 1015.6 |
| 20260903120803 | 75 | 159 | 0.0 | 0.0 | 0.00 | 0.00 | 0.00 | 74 | 1015.2 |
| 20260903120302 | 75 | 168 | 0.0 | 0.0 | 0.00 | 0.00 | 0.00 | 74 | 1015.2 |
| 20260903115802 | 74 | 123 | 0.0 | 0.0 | 0.00 | 0.00 | 0.00 | 74 | 1015.2 |
| 20260903115305 | 74 | 32 | 0.0 | 0.0 | 0.00 | 0.00 | 0.00 | 73 | 1015.2 |
| 20260903113803 | 74 | 119 | 0.0 | 2.0 | 0.00 | 0.00 | 0.00 | 72 | 1015.2 |
| 20260903112802 | 74 | 201 | 0.0 | 2.0 | 0.00 | 0.00 | 0.00 | 72 | 1015.2 |
| 20260903112305 | 75 | 100 | 0.0 | 0.0 | 0.00 | 0.00 | 0.00 | 72 | 1015.2 |
| 20260903111802 | 75 | 100 | 1.0 | 0.0 | 0.00 | 0.00 | 0.00 | 72 | 1015.2 |
| 20260903111302 | 75 | 100 | 1.0 | 0.0 | 0.00 | 0.00 | 0.00 | 72 | 1015.5 |
| 20260903110802 | 75 | 140 | 0.0 | 2.0 | 0.00 | 0.00 | 0.00 | 71 | 1015.4 |
| 20260903110302 | 75 | 100 | 0.0 | 0.0 | 0.00 | 0.00 | 0.00 | 71 | 1015.4 |
| 20260903105802 | 75 | 125 | 0.0 | 0.0 | 0.00 | 0.00 | 0.00 | 71 | 1015.4 |
| 20260903105305 | 75 | 122 | 0.0 | 0.0 | 0.00 | 0.00 | 0.00 | 71 | 1015.4 |